Flight Track Log - Related Links

Times and Time Zones

All times are in EDT time to prevent confusion due to time zone crossing. See the AWI4042 flight status page for this flight to view local times or setup timezone preferences in your user account.

Time Position Orientation Groundspeed Altitude Reporting Facility
EDT Latitude Longitude Course Direction KTS MPH feet Rate Location/Type
Sun 06:54:02 AM 37.1397 -76.4750 38° Northeast 181 208 800  Level Washington Center
Sun 06:55:01 AM 37.1733 -76.4181 53° Northeast 230 265 3,000 2,200 Climbing Washington Center
Sun 06:56:00 AM 37.2811 -76.3030 47° Northeast  Level FlightAware Approximate
Sun 06:56:02 AM 37.2197 -76.3481 50° Northeast 275 316 5,200  Level Washington Center
Sun 06:57:00 AM 37.3401 -76.2432 38° Northeast  Level FlightAware Approximate
Sun 06:57:02 AM 37.2847 -76.2836 38° Northeast 302 348 7,400  Level Washington Center
Sun 06:57:50 AM 37.3289 -76.2369 40° Northeast 318 366 8,800 2,073 Climbing Washington Center
Sun 06:58:00 AM 37.3995 -76.1839 38° Northeast  Level FlightAware Approximate
Sun 06:58:52 AM 37.3981 -76.1669 39° Northeast 326 375 11,200  Level Washington Center
Sun 06:59:00 AM 37.4510 -76.1156 38° Northeast  Level FlightAware Approximate
Sun 06:59:50 AM 37.4733 -76.1019 34° Northeast 326 375 13,500  Level Washington Center
Sun 07:00:50 AM 37.5489 -76.0239 39° Northeast 332 382 15,500 2,000 Climbing Washington Center
Sun 07:01:50 AM 37.6303 -75.9458 37° Northeast 345 397 17,500 1,721 Climbing Washington Center
Sun 07:02:52 AM 37.7100 -75.8542 42° Northeast 364 419 19,000 744 Climbing Washington Center
Sun 07:03:51 AM 37.7933 -75.7653 40° Northeast 381 438 19,000  Level Washington Center
Sun 07:04:50 AM 37.8728 -75.6733 42° Northeast 386 444 19,000  Level Washington Center
Sun 07:05:52 AM 37.9542 -75.5839 41° Northeast 386 444 19,000  Level Washington Center
Sun 07:06:50 AM 38.0292 -75.5022 41° Northeast 376 433 19,000  Level Washington Center
Sun 07:07:51 AM 38.1125 -75.4281 35° Northeast 370 426 19,000  Level Washington Center
Sun 07:08:50 AM 38.2064 -75.3672 27° Northeast 365 420 19,000  Level Washington Center
Sun 07:09:49 AM 38.2978 -75.3114 26° Northeast 365 420 19,000 -650 Level Washington Center
Sun 07:10:50 AM 38.4019 -75.2472 26° Northeast 365 420 17,700 -1,240 Descending Washington Center
Sun 07:11:50 AM 38.4936 -75.1911 26° Northeast 365 420 16,500 -1,261 Descending Washington Center
Sun 07:12:49 AM 38.5872 -75.1322 26° Northeast 365 420 15,200 -744 Descending Washington Center
Sun 07:13:51 AM 38.6786 -75.0731 27° Northeast 365 420 15,000 -98 Descending Washington Center
Sun 07:14:52 AM 38.7658 -75.0139 28° Northeast 360 414 15,000 -151 Level Washington Center
Sun 07:15:50 AM 38.8531 -74.9572 27° Northeast 355 409 14,700 -1,714 Descending Washington Center
Sun 07:16:51 AM 38.9342 -74.9086 25° Northeast 342 394 11,600 -2,650 Descending Washington Center
Sun 07:17:50 AM 39.0194 -74.8517 27° Northeast 336 387 9,400 -1,350 Descending Washington Center
Sun 07:18:51 AM 39.0983 -74.8081 23° Northeast 325 374 8,900 -252 Descending Washington Center
Sun 07:19:49 AM 39.1797 -74.8339 346° North 296 341 8,900 40 Level Washington Center
Sun 07:21:22 AM 39.3000 -74.8833 342° North 300 345 9,000 38 Climbing Philadelphia TRACON
Sun 07:22:28 AM 39.4000 -74.9167 346° North 300 345 9,000 -429 Level Philadelphia TRACON
Sun 07:23:28 AM 39.4500 -74.9833 314° West 288 331 8,100 -950 Descending Philadelphia TRACON
Sun 07:24:28 AM 39.5000 -75.0667 308° West 285 328 7,100 -1,050 Descending Philadelphia TRACON
Sun 07:25:28 AM 39.5500 -75.1333 314° West 278 320 6,000 -947 Descending Philadelphia TRACON
Sun 07:26:22 AM 39.6000 -75.2000 314° West 278 320 5,300 -1,056 Descending Philadelphia TRACON
Sun 07:27:16 AM 39.6500 -75.2667 314° West 273 314 4,100 -850 Descending Philadelphia TRACON
Sun 07:28:22 AM 39.7000 -75.3333 314° West 201 231 3,600 -952 Descending Philadelphia TRACON
Sun 07:29:22 AM 39.7333 -75.3833 311° West 213 245 2,100 -850 Descending Philadelphia TRACON
Sun 07:30:22 AM 39.7833 -75.4000 346° North 191 220 1,900 -250 Descending Philadelphia TRACON
Sun 07:31:22 AM 39.8333 -75.3667 27° Northeast 179 206 1,600 -550 Descending Philadelphia TRACON
Sun 07:32:22 AM 39.8500 -75.3167 67° East 142 163 800 -800 Descending Philadelphia TRACON

Login

Don't have an account? Register now (free) for customized features, flight alerts, and more!